Location: Namasale
(1.5000°N, 32.6167°E)
Time: 20:28:36
(UTC+00:00)

SR - Pass Details

Date: 16 April 2021
Orbit: 573 x 882 km, 66.7° (Epoch: 13 May)

Event Time Altitude Azimuth Distance (km) Brightness Sun altitude
Rises 17:03:20 0° 324° (NW) 3,248 ? -17.9°
Reaches altitude 10° 17:06:02 10° 314° (NW) 2,270 ? -18.6°
Maximum altitude 17:10:36 32° 252° (WSW) 1,203 ? -19.7°
Drops below altitude 10° 17:14:51 10° 189° (S) 2,095 ? -20.7°
Sets 17:17:16 0° 178° (S) 2,960 ? -21.3°
Enters shadow 17:17:16 - 178° (S) 2,965 ? -21.3°
